AUA28F LOWW-EDDP

Flight info

Callsign AUA28F
Flight time N/A
Altitude 30000
Route LANUX2C/29 LANUX DCT VLM DCT BEFRE DCT IVQOQ T951 YAWOY YAWOY1R
Aircraft E195/M-SDE3GILORVW/S

Departure

Time 2026-05-07 19:21
Airport Vienna International Airport (LOWW)

Arrival

Time N/A
Airport Leipzig/Halle Airport (EDDP)
Time Latitude Longitude Altitude Speed Heading
2026-05-07 18:49 48.11754 16.57180 608 ft 0 kts 204°
2026-05-07 19:16 48.11736 16.57168 607 ft 6 kts 206°
2026-05-07 19:16 48.11683 16.57144 607 ft 7 kts 159°
2026-05-07 19:16 48.11655 16.57213 607 ft 9 kts 114°
2026-05-07 19:16 48.11618 16.57327 607 ft 15 kts 116°
2026-05-07 19:17 48.11570 16.57455 607 ft 11 kts 151°
2026-05-07 19:17 48.11492 16.57457 607 ft 11 kts 199°
2026-05-07 19:17 48.11424 16.57410 607 ft 10 kts 206°
2026-05-07 19:17 48.11354 16.57361 607 ft 11 kts 206°
2026-05-07 19:18 48.11285 16.57310 607 ft 11 kts 205°
2026-05-07 19:18 48.11215 16.57259 607 ft 11 kts 207°
2026-05-07 19:18 48.11145 16.57206 607 ft 11 kts 206°
2026-05-07 19:18 48.11086 16.57135 607 ft 11 kts 234°
2026-05-07 19:19 48.11069 16.57085 607 ft 0 kts 263°
2026-05-07 19:19 48.11069 16.57072 607 ft 4 kts 273°
2026-05-07 19:19 48.11073 16.57052 607 ft 0 kts 291°
2026-05-07 19:20 48.11078 16.57029 607 ft 11 kts 291°
2026-05-07 19:20 48.11271 16.56429 608 ft 119 kts 295°
2026-05-07 19:20 48.11782 16.54927 802 ft 190 kts 295°
2026-05-07 19:21 48.12400 16.53068 1643 ft 220 kts 290°
2026-05-07 19:21 48.12681 16.50604 1725 ft 257 kts 267°
2026-05-07 19:21 48.12255 16.47953 1772 ft 268 kts 249°
2026-05-07 19:21 48.12030 16.45243 2932 ft 261 kts 275°
2026-05-07 19:22 48.12173 16.42796 4661 ft 231 kts 275°
2026-05-07 19:22 48.12364 16.40331 5039 ft 251 kts 277°
2026-05-07 19:22 48.12607 16.37707 5661 ft 263 kts 279°
2026-05-07 19:22 48.12870 16.35057 6585 ft 255 kts 279°
2026-05-07 19:23 48.13143 16.32381 7040 ft 263 kts 279°
2026-05-07 19:23 48.13424 16.29665 7546 ft 268 kts 279°
2026-05-07 19:23 48.13715 16.26862 8248 ft 279 kts 279°
2026-05-07 19:23 48.13997 16.24139 9164 ft 256 kts 280°
2026-05-07 19:24 48.14452 16.21615 9366 ft 262 kts 301°
2026-05-07 19:24 48.15844 16.19753 9765 ft 269 kts 330°
2026-05-07 19:24 48.17477 16.18440 10039 ft 272 kts 332°
2026-05-07 19:24 48.19196 16.17118 10156 ft 280 kts 333°
2026-05-07 19:25 48.20941 16.15803 10425 ft 282 kts 333°
2026-05-07 19:25 48.22708 16.14485 10650 ft 285 kts 333°
2026-05-07 19:25 48.24503 16.13151 10730 ft 294 kts 333°
2026-05-07 19:25 48.26363 16.11770 10878 ft 300 kts 333°
2026-05-07 19:26 48.28223 16.10389 11115 ft 302 kts 333°
2026-05-07 19:26 48.30142 16.08964 11365 ft 311 kts 333°
2026-05-07 19:26 48.32095 16.07512 11629 ft 319 kts 333°
2026-05-07 19:26 48.34104 16.06017 11914 ft 333 kts 333°
2026-05-07 19:27 48.36188 16.04466 12473 ft 334 kts 333°
2026-05-07 19:27 48.38302 16.02890 12804 ft 340 kts 333°
2026-05-07 19:27 48.40437 16.01298 13079 ft 346 kts 333°
2026-05-07 19:27 48.42585 15.99694 13472 ft 347 kts 333°
2026-05-07 19:28 48.44766 15.98063 13829 ft 350 kts 333°
2026-05-07 19:28 48.46948 15.96431 14165 ft 353 kts 333°
2026-05-07 19:28 48.49126 15.94800 14498 ft 355 kts 332°
2026-05-07 19:28 48.51351 15.93132 14830 ft 357 kts 332°
2026-05-07 19:29 48.53595 15.91448 15170 ft 359 kts 332°
2026-05-07 19:29 48.55837 15.89765 15489 ft 361 kts 332°
2026-05-07 19:29 48.58051 15.87982 15788 ft 362 kts 329°
2026-05-07 19:29 48.60240 15.86120 16100 ft 364 kts 329°
2026-05-07 19:30 48.62454 15.84232 16438 ft 369 kts 329°
2026-05-07 19:30 48.64709 15.82305 17016 ft 368 kts 328°
2026-05-07 19:30 48.66925 15.80409 17482 ft 371 kts 328°
2026-05-07 19:30 48.69176 15.78481 17883 ft 374 kts 328°
2026-05-07 19:31 48.71442 15.76538 18311 ft 377 kts 328°
2026-05-07 19:31 48.73745 15.74562 18838 ft 384 kts 328°
2026-05-07 19:31 48.76089 15.72547 19516 ft 385 kts 328°
2026-05-07 19:31 48.78416 15.70546 20103 ft 389 kts 328°
2026-05-07 19:32 48.80761 15.68527 20648 ft 394 kts 327°
2026-05-07 19:32 48.83184 15.66439 21201 ft 398 kts 327°
2026-05-07 19:32 48.85659 15.64628 21664 ft 407 kts 340°
2026-05-07 19:32 48.88502 15.63808 22173 ft 412 kts 346°
2026-05-07 19:33 48.91237 15.62764 22765 ft 412 kts 342°
2026-05-07 19:33 48.94006 15.61584 23214 ft 417 kts 341°
2026-05-07 19:33 48.96811 15.60360 23635 ft 421 kts 341°
2026-05-07 19:33 48.99625 15.59124 24077 ft 425 kts 341°
2026-05-07 19:34 49.02496 15.57859 24522 ft 429 kts 341°
2026-05-07 19:34 49.05365 15.56592 24936 ft 433 kts 341°
2026-05-07 19:34 49.08241 15.55321 25356 ft 436 kts 341°
2026-05-07 19:34 49.11162 15.54029 25733 ft 440 kts 341°
2026-05-07 19:35 49.14112 15.52722 26123 ft 443 kts 341°
2026-05-07 19:35 49.17124 15.51386 26505 ft 446 kts 341°
2026-05-07 19:35 49.20099 15.50065 26836 ft 450 kts 341°
2026-05-07 19:35 49.23077 15.48740 27189 ft 453 kts 341°
2026-05-07 19:36 49.26121 15.47385 27534 ft 456 kts 341°
2026-05-07 19:36 49.29176 15.46022 27857 ft 459 kts 341°
2026-05-07 19:36 49.32246 15.44652 28175 ft 462 kts 341°
2026-05-07 19:36 49.35323 15.43277 28491 ft 464 kts 341°
2026-05-07 19:37 49.38396 15.41901 28810 ft 467 kts 341°
2026-05-07 19:37 49.41553 15.40486 29096 ft 470 kts 341°
2026-05-07 19:37 49.44666 15.39089 29390 ft 472 kts 341°
2026-05-07 19:37 49.47820 15.37672 29684 ft 475 kts 341°
2026-05-07 19:38 49.51025 15.36230 29945 ft 477 kts 341°
2026-05-07 19:38 49.54179 15.34810 29996 ft 470 kts 340°
2026-05-07 19:38 49.57252 15.33424 29979 ft 455 kts 340°
2026-05-07 19:38 49.60263 15.32063 29994 ft 447 kts 340°
2026-05-07 19:39 49.66164 15.29391 30023 ft 447 kts 340°
2026-05-07 19:39 49.72139 15.26679 30023 ft 449 kts 340°
2026-05-07 19:40 49.78114 15.23961 30023 ft 450 kts 340°
2026-05-07 19:40 49.84127 15.21218 30023 ft 448 kts 340°
2026-05-07 19:41 49.90082 15.18495 30023 ft 448 kts 340°
2026-05-07 19:41 49.96039 15.15764 30024 ft 447 kts 340°
2026-05-07 19:42 50.01992 15.13026 30025 ft 446 kts 341°
2026-05-07 19:42 50.07886 15.10310 30025 ft 444 kts 341°
2026-05-07 19:43 50.13839 15.07560 30017 ft 444 kts 341°
2026-05-07 19:43 50.19796 15.04800 30018 ft 443 kts 341°
2026-05-07 19:44 50.25690 15.02063 30019 ft 442 kts 341°
2026-05-07 19:44 50.31517 14.99349 30028 ft 441 kts 341°
2026-05-07 19:45 50.37396 14.96604 30038 ft 440 kts 341°
2026-05-07 19:45 50.43222 14.93878 30046 ft 439 kts 341°
2026-05-07 19:46 50.49097 14.91120 30046 ft 438 kts 341°
2026-05-07 19:46 50.54911 14.88385 30047 ft 438 kts 341°
2026-05-07 19:47 50.60739 14.85636 30047 ft 437 kts 341°
2026-05-07 19:47 50.66515 14.82904 30048 ft 437 kts 341°
2026-05-07 19:48 50.72317 14.80153 30046 ft 434 kts 341°
2026-05-07 19:48 50.75147 14.78810 29968 ft 417 kts 341°
2026-05-07 19:48 50.77867 14.77517 29668 ft 405 kts 341°
2026-05-07 19:49 50.80550 14.76238 29149 ft 400 kts 341°
2026-05-07 19:49 50.83171 14.74988 28615 ft 395 kts 341°
2026-05-07 19:49 50.85785 14.73741 28104 ft 390 kts 341°
2026-05-07 19:49 50.88368 14.72506 27575 ft 385 kts 341°
2026-05-07 19:50 50.90929 14.71281 27048 ft 380 kts 341°
2026-05-07 19:50 50.93314 14.69943 26484 ft 375 kts 330°
2026-05-07 19:50 50.95296 14.67278 25815 ft 366 kts 304°
2026-05-07 19:50 50.96283 14.63664 25294 ft 353 kts 278°
2026-05-07 19:51 50.96269 14.59830 24781 ft 346 kts 266°
2026-05-07 19:51 50.96485 14.56058 24236 ft 344 kts 281°
2026-05-07 19:51 50.97028 14.52400 23711 ft 341 kts 283°
2026-05-07 19:51 50.97631 14.48797 23142 ft 340 kts 284°
2026-05-07 19:52 50.98266 14.45149 22570 ft 338 kts 284°
2026-05-07 19:52 50.98891 14.41601 22043 ft 335 kts 284°
2026-05-07 19:52 50.99513 14.38082 21539 ft 331 kts 284°
2026-05-07 19:52 51.00133 14.34569 20981 ft 329 kts 284°
2026-05-07 19:53 51.00749 14.31082 20461 ft 326 kts 284°
2026-05-07 19:53 51.01361 14.27607 19950 ft 323 kts 284°
2026-05-07 19:53 51.01960 14.24196 19420 ft 321 kts 284°
2026-05-07 19:53 51.02552 14.20820 18909 ft 319 kts 284°
2026-05-07 19:54 51.03153 14.17394 18404 ft 316 kts 283°
2026-05-07 19:54 51.03736 14.14055 17906 ft 313 kts 283°
2026-05-07 19:54 51.04309 14.10768 17404 ft 311 kts 283°
2026-05-07 19:54 51.04887 14.07447 17070 ft 306 kts 283°
2026-05-07 19:55 51.05461 14.04139 17119 ft 316 kts 283°
2026-05-07 19:55 51.06045 14.00775 17060 ft 314 kts 283°
2026-05-07 19:55 51.06624 13.97430 17074 ft 312 kts 284°
2026-05-07 19:55 51.07197 13.94116 17069 ft 310 kts 284°
2026-05-07 19:56 51.07767 13.90810 17074 ft 309 kts 284°
2026-05-07 19:56 51.08332 13.87528 17038 ft 303 kts 284°
2026-05-07 19:56 51.08889 13.84293 16541 ft 302 kts 284°
2026-05-07 19:56 51.09447 13.81035 15902 ft 305 kts 284°
2026-05-07 19:57 51.09999 13.77812 15417 ft 303 kts 284°
2026-05-07 19:57 51.10551 13.74578 14940 ft 300 kts 284°
2026-05-07 19:57 51.11094 13.71396 14430 ft 299 kts 284°
2026-05-07 19:57 51.11640 13.68189 13946 ft 296 kts 284°
2026-05-07 19:58 51.12168 13.65081 13481 ft 294 kts 284°
2026-05-07 19:58 51.12711 13.61884 12975 ft 293 kts 284°
2026-05-07 19:58 51.13245 13.58731 12498 ft 291 kts 284°
2026-05-07 19:58 51.13769 13.55629 12095 ft 288 kts 284°
2026-05-07 19:59 51.14296 13.52503 12102 ft 289 kts 284°
2026-05-07 19:59 51.14822 13.49379 12067 ft 288 kts 284°
2026-05-07 19:59 51.15352 13.46227 12074 ft 288 kts 284°
2026-05-07 19:59 51.15879 13.43090 12073 ft 287 kts 285°
2026-05-07 20:00 51.16407 13.39937 12073 ft 287 kts 285°
2026-05-07 20:00 51.16899 13.36995 12073 ft 287 kts 285°
2026-05-07 20:00 51.17350 13.33719 12052 ft 287 kts 273°
2026-05-07 20:00 51.17396 13.30528 12099 ft 286 kts 270°
2026-05-07 20:01 51.17410 13.27369 12068 ft 287 kts 270°
2026-05-07 20:01 51.17409 13.24180 12076 ft 287 kts 269°
2026-05-07 20:01 51.17401 13.20992 12074 ft 286 kts 269°
2026-05-07 20:01 51.17391 13.17821 12074 ft 286 kts 269°
2026-05-07 20:02 51.17379 13.14627 12078 ft 286 kts 269°
2026-05-07 20:02 51.17365 13.11453 12081 ft 286 kts 269°
2026-05-07 20:02 51.17350 13.08279 12085 ft 286 kts 269°
2026-05-07 20:02 51.17255 13.05110 12066 ft 287 kts 258°
2026-05-07 20:03 51.16674 13.02090 12114 ft 286 kts 260°
2026-05-07 20:03 51.16831 12.98930 12123 ft 285 kts 284°
2026-05-07 20:03 51.17321 12.95839 12089 ft 287 kts 284°
2026-05-07 20:03 51.17812 12.92730 12108 ft 286 kts 284°
2026-05-07 20:04 51.18293 12.89666 12097 ft 286 kts 284°
2026-05-07 20:04 51.18776 12.86584 12102 ft 287 kts 284°
2026-05-07 20:04 51.19262 12.83468 12101 ft 287 kts 284°
2026-05-07 20:04 51.19743 12.80372 12101 ft 287 kts 284°
2026-05-07 20:05 51.20223 12.77276 12101 ft 287 kts 284°
2026-05-07 20:05 51.20694 12.74190 12100 ft 287 kts 282°
2026-05-07 20:05 51.21012 12.71080 12089 ft 282 kts 279°
2026-05-07 20:05 51.21308 12.67987 11663 ft 280 kts 279°
2026-05-07 20:06 51.21598 12.64903 11045 ft 285 kts 279°
2026-05-07 20:06 51.21883 12.61801 10563 ft 284 kts 279°
2026-05-07 20:06 51.22164 12.58679 10104 ft 282 kts 279°
2026-05-07 20:06 51.22436 12.55593 9633 ft 281 kts 279°
2026-05-07 20:07 51.22698 12.52524 9172 ft 280 kts 279°
2026-05-07 20:07 51.22952 12.49471 8711 ft 279 kts 279°
2026-05-07 20:07 51.23248 12.46409 8239 ft 277 kts 286°
2026-05-07 20:07 51.23811 12.43487 7793 ft 275 kts 289°
2026-05-07 20:08 51.24373 12.40621 7359 ft 274 kts 289°
2026-05-07 20:08 51.24936 12.37724 6910 ft 272 kts 289°
2026-05-07 20:08 51.25499 12.34826 6465 ft 271 kts 288°
2026-05-07 20:08 51.26048 12.31962 6025 ft 270 kts 288°
2026-05-07 20:09 51.26594 12.29112 5596 ft 269 kts 288°
2026-05-07 20:09 51.27144 12.26252 5180 ft 267 kts 288°
2026-05-07 20:09 51.27687 12.23445 4766 ft 265 kts 288°
2026-05-07 20:10 51.28592 12.18778 4078 ft 262 kts 288°
2026-05-07 20:10 51.29311 12.15094 3541 ft 260 kts 288°
2026-05-07 20:10 51.29846 12.12364 3135 ft 258 kts 288°
2026-05-07 20:10 51.30386 12.09627 3013 ft 255 kts 288°
2026-05-07 20:11 51.30898 12.07030 2974 ft 238 kts 288°
2026-05-07 20:11 51.31379 12.04570 2978 ft 227 kts 288°
2026-05-07 20:11 51.31846 12.02184 2991 ft 222 kts 288°
2026-05-07 20:11 51.32297 11.99863 2985 ft 217 kts 288°
2026-05-07 20:12 51.32753 11.97548 2998 ft 216 kts 288°
2026-05-07 20:12 51.33410 11.95426 2971 ft 214 kts 318°
2026-05-07 20:12 51.34709 11.94514 3069 ft 204 kts 353°
2026-05-07 20:12 51.36114 11.94231 3027 ft 205 kts 353°
2026-05-07 20:13 51.37519 11.93956 3001 ft 202 kts 353°
2026-05-07 20:13 51.38873 11.93815 2838 ft 195 kts
2026-05-07 20:13 51.40015 11.94937 2525 ft 197 kts 52°
2026-05-07 20:13 51.40822 11.96726 2519 ft 200 kts 53°
2026-05-07 20:14 51.41635 11.98532 2504 ft 200 kts 55°
2026-05-07 20:14 51.41990 12.00659 2473 ft 202 kts 97°
2026-05-07 20:14 51.41478 12.02762 2541 ft 205 kts 114°
2026-05-07 20:14 51.40875 12.04832 2494 ft 205 kts 114°
2026-05-07 20:15 51.40277 12.06882 2501 ft 205 kts 114°
2026-05-07 20:15 51.39742 12.09003 2487 ft 204 kts 102°
2026-05-07 20:15 51.39483 12.11207 2511 ft 203 kts 90°
2026-05-07 20:15 51.39630 12.13467 2466 ft 202 kts 89°
2026-05-07 20:16 51.39290 12.15625 2491 ft 205 kts 120°
2026-05-07 20:16 51.38108 12.16959 2790 ft 223 kts 168°
2026-05-07 20:16 51.36614 12.17184 3737 ft 221 kts 174°
2026-05-07 20:16 51.35085 12.17380 3945 ft 218 kts 174°
2026-05-07 20:17 51.33600 12.17579 3996 ft 216 kts 173°
2026-05-07 20:17 51.32030 12.17719 4008 ft 231 kts 187°
2026-05-07 20:17 51.30629 12.16547 4028 ft 234 kts 230°
2026-05-07 20:17 51.29996 12.14194 4035 ft 234 kts 262°
2026-05-07 20:18 51.29778 12.11621 4006 ft 235 kts 263°
2026-05-07 20:18 51.29561 12.09016 4003 ft 234 kts 263°
2026-05-07 20:18 51.29348 12.06469 3997 ft 233 kts 263°
2026-05-07 20:18 51.29133 12.03904 4001 ft 233 kts 263°
2026-05-07 20:19 51.28916 12.01308 4000 ft 233 kts 263°
2026-05-07 20:19 51.28702 11.98758 3999 ft 234 kts 263°
2026-05-07 20:19 51.28495 11.96240 3844 ft 227 kts 265°
2026-05-07 20:19 51.28788 11.93780 3347 ft 229 kts 304°
2026-05-07 20:20 51.30004 11.92289 3033 ft 223 kts 346°
2026-05-07 20:20 51.31537 11.91919 3045 ft 225 kts 354°
2026-05-07 20:20 51.33076 11.91614 2996 ft 224 kts 353°
2026-05-07 20:20 51.34623 11.91321 2999 ft 223 kts 353°
2026-05-07 20:21 51.36161 11.91345 2973 ft 222 kts 17°
2026-05-07 20:21 51.37664 11.91906 2992 ft 224 kts 356°
2026-05-07 20:21 51.39050 11.90930 3027 ft 224 kts 315°
2026-05-07 20:21 51.39718 11.88685 3014 ft 228 kts 275°
2026-05-07 20:22 51.39440 11.86204 3047 ft 230 kts 258°
2026-05-07 20:22 51.39592 11.83724 2989 ft 225 kts 300°
2026-05-07 20:22 51.40688 11.82123 3011 ft 209 kts 342°
2026-05-07 20:22 51.42080 11.82160 2766 ft 201 kts 26°
2026-05-07 20:23 51.42994 11.83726 2525 ft 199 kts 72°
2026-05-07 20:23 51.42908 11.85899 2551 ft 202 kts 111°
2026-05-07 20:23 51.42569 11.88057 2478 ft 201 kts 81°